Content
SEND FEEDBACK

Daily
Averages
Monthly
Summary
United Kingdom

WELLS NEXT THE SEA, ENGLAND


Home > Europe > United Kingdom > England
Elevation: 245 feet     Latitude: 52 51N     Longitude: 000 46E

WEATHER
 
SELECT A DAY
Number of Records: 163,836;   Date Range: 8/10/96 - 10/19/14
 
SHARE

PRINT THIS DATA

[ ← Previous Day ]
WEATHER ALMANAC - OCTOBER 18, 2013
[ Next Day → ]
[ °C ]   °F
Weather ElementAverageHighLow
Temperature53.3 °F57.7 °F (12:58 pm)44.6 °F (7:58 am)
Dewpoint52.2 °F55.6 °F (3:58 pm)44.6 °F (7:58 am)
Humidity96 %100 % (12:04 am)88 % (12:50 pm)
Barometer29.95 in30.01 in (6:58 am)29.81 in (11:17 pm)
Wind Speed7.4 mph13.8 mph (9:21 pm)
Wind Gust20.7 mph (9:21 pm)
Weather ElementAverage
Visibility6 mi
Wind DirectionESE (123.6 °)

Weather ElementTotal
Precipitation---
Heating Degree Days13.9 (Base 65)
Growing Degree Days1.2 (Base 50)
Averaged from 53 records on October 18, 2013
WEATHER CONDITIONS BREAKOUT
WIND DIRECTION BREAKOUT
WEATHER BY HOUR - OCTOBER 18, 2013
[ °C ]   °F
Local TimeTemperatureDewpointHumidityBarometerVisibilityWind DirectionWind SpeedGust SpeedPrecipitationEventsConditions
12:04 AM48.2 °F48.2 °F100 %29.98 in2.5 miSouth (170°)2.3 mphClear
12:06 AM48.2 °F48.2 °F100 %29.98 in3.1 miSouth (170°)2.3 mphClear
12:58 AM47.5 °F47.5 °F100 %30.00 in6.2 miSouth (190°)3.5 mphClear
1:58 AM46.2 °F46.2 °F100 %30.00 in6.2 miCalmPartly Cloudy
2:58 AM46.2 °F46.2 °F100 %30.00 in6.2 miSouth (170°)2.3 mphMostly Cloudy
3:58 AM46.2 °F46.2 °F100 %30.00 in6.2 miEast (90°)2.3 mphScattered Clouds
4:58 AM45.9 °F45.9 °F100 %30.00 in6.2 miCalmMostly Cloudy
5:58 AM46.9 °F46.9 °F100 %30.00 in6.2 miCalmOvercast
6:58 AM45.0 °F45.0 °F100 %30.01 in6.2 miENE (70°)2.3 mphMostly Cloudy
7:58 AM44.6 °F44.6 °F100 %30.01 in6.2 miEast (90°)2.3 mphPartly Cloudy
8:07 AM44.6 °F44.6 °F100 %30.00 in6.2 miSSW (210°)3.5 mphPartly Cloudy
8:16 AM46.4 °F46.4 °F100 %30.00 in6.2 miSE (130°)2.3 mphMostly Cloudy
8:55 AM48.6 °F48.6 °F100 %30.00 in0.2 miVariable1.2 mphFogFog
9:02 AM48.2 °F48.2 °F100 %30.00 in6.2 miVariable1.2 mphOvercast
9:58 AM50.4 °F50.4 °F100 %30.01 in6.2 miESE (110°)2.3 mphOvercast
10:19 AM51.8 °F51.8 °F100 %30.00 in6.2 miENE (60°)3.5 mphScattered Clouds
10:54 AM53.6 °F53.6 °F100 %30.00 in6.2 miSSE (150°)3.5 mphMostly Cloudy
10:58 AM53.8 °F53.8 °F100 %30.01 in6.2 miSE (130°)4.6 mphMostly Cloudy
11:05 AM53.6 °F53.6 °F100 %30.00 in6.2 miESE (120°)6.9 mphOvercast
11:08 AM53.6 °F53.6 °F100 %30.00 in6.2 miSE (140°)6.9 mphOvercast
11:17 AM53.6 °F53.6 °F100 %29.99 in6.2 miSE (130°)8.1 mphMostly Cloudy
11:30 AM55.4 °F55.4 °F100 %29.99 in6.2 miSE (140°)9.2 mphScattered Clouds
11:58 AM57.2 °F54.7 °F91 %30.00 in6.2 miSE (140°)8.1 mphScattered Clouds
12:19 PM57.2 °F55.4 °F94 %29.98 in6.2 miSSE (160°)9.2 mphMostly Cloudy
12:35 PM57.2 °F55.4 °F94 %29.98 in6.2 miSouth (170°)9.2 mphScattered Clouds
12:41 PM57.2 °F55.4 °F94 %29.98 in6.2 miSouth (180°)10.4 mphMostly Cloudy
12:44 PM57.2 °F55.4 °F94 %29.98 in6.2 miSSE (160°)10.4 mphMostly Cloudy
12:46 PM57.2 °F55.4 °F94 %29.98 in6.2 miSSE (160°)9.2 mphMostly Cloudy
12:50 PM57.2 °F53.6 °F88 %29.98 in6.2 miSouth (170°)11.5 mphMostly Cloudy
12:58 PM57.7 °F54.5 °F89 %29.99 in6.2 miSouth (180°)9.2 mphMostly Cloudy
1:58 PM57.2 °F54.3 °F90 %29.98 in6.2 miSE (140°)6.9 mphOvercast
2:23 PM57.2 °F55.4 °F94 %29.97 in6.2 miSE (140°)8.1 mphOvercast
2:58 PM57.7 °F55.2 °F91 %29.96 in6.2 miESE (120°)5.8 mphOvercast
3:58 PM57.7 °F55.6 °F92 %29.95 in6.2 miSE (140°)10.4 mphOvercast
4:58 PM57.4 °F55.4 °F93 %29.92 in6.2 miESE (120°)9.2 mphMostly Cloudy
5:08 PM57.2 °F55.4 °F94 %29.91 in6.2 miESE (120°)10.4 mphMostly Cloudy
5:58 PM56.3 °F54.7 °F94 %29.91 in6.2 miSE (130°)11.5 mphMostly Cloudy
6:58 PM55.6 °F54.5 °F96 %29.90 in6.2 miESE (120°)11.5 mphScattered Clouds
7:13 PM55.4 °F53.6 °F94 %29.89 in6.2 miESE (120°)10.4 mphMostly Cloudy
7:58 PM55.6 °F54.0 °F94 %29.89 in6.2 miSE (140°)11.5 mphOvercast
8:15 PM55.4 °F53.6 °F94 %29.88 in6.2 miSE (130°)10.4 mphMostly Cloudy
8:16 PM55.4 °F53.6 °F94 %29.88 in6.2 miESE (120°)9.2 mphMostly Cloudy
8:27 PM55.4 °F53.6 °F94 %29.87 in6.2 miSE (130°)11.5 mphMostly Cloudy
8:36 PM55.4 °F53.6 °F94 %29.86 in6.2 miSE (130°)10.4 mphOvercast
8:43 PM55.4 °F53.6 °F94 %29.86 in6.2 miSE (130°)12.7 mphOvercast
8:58 PM55.8 °F53.8 °F93 %29.86 in6.2 miESE (120°)12.7 mphOvercast
9:21 PM55.4 °F53.6 °F94 %29.84 in6.2 miSE (130°)13.8 mph20.7 mphOvercast
9:58 PM55.9 °F53.4 °F91 %29.85 in6.2 miSE (130°)12.7 mphOvercast
10:27 PM55.4 °F53.6 °F94 %29.83 in6.2 miSE (130°)13.8 mphScattered Clouds
10:58 PM55.9 °F54.0 °F93 %29.83 in6.2 miSE (130°)11.5 mph19.6 mphScattered Clouds
11:17 PM55.4 °F53.6 °F94 %29.81 in6.2 miSE (130°)10.4 mphMostly Cloudy
11:58 PM55.9 °F54.3 °F94 %29.82 in6.2 miSE (130°)11.5 mphMostly Cloudy
11:59 PM55.4 °F53.6 °F94 %29.81 in6.2 miSE (130°)10.4 mphMostly Cloudy
Hourly data recorded from EGUL, located miles away from Wells Next the Sea, England







STORIES FROM OUR PARTNERS